Regional Weather Roundup
Issued by NWS Charleston, SC

Current Version | Previous Version | Text Only | Print | Product List | Glossary Off
Versions: 1 2 3 4 5 6 7 8 9 10 11 12 13 14 15 16 17 18 19 20 21 22 23 24 25 26 27 28 29 30 31 32 33 34 35 36 37 38 39 40 41 42 43 44 45 46 47 48 49 50

000
ASUS42 KCHS 120611
RWRCHS

REGIONAL WEATHER ROUNDUP
NATIONAL WEATHER SERVICE CHARLESTON SC
100 AM EST TUE DEC 12 2017

NOTE: "FAIR" INDICATES FEW OR NO CLOUDS BELOW 12,000 FEET WITH NO
SIGNIFICANT WEATHER AND/OR OBSTRUCTIONS TO VISIBILITY.

NOT ALL STATIONS ARE QUALITY CONTROLLED. USE DATA WITH CAUTION...
ESPECIALLY DEWPOINT OBSERVATIONS.

SCZ027-030-031-034>040-042>050-120700-
...SOUTHEAST SOUTH CAROLINA...

CITY           SKY/WX    TMP DP  RH WIND       PRES   REMARKS
N CHARLESTON   CLEAR     45  39  79 SW9       29.98F
6HR MIN TEMP:  40; 6HR MAX TEMP:  47;

WATERFRONT PRK   N/A     51  42  71 VRB3      29.85F
JOHNS ISLAND   FAIR      50  41  71 SW7       30.00S
PINOPOLIS        N/A     48  41  76 SW9       29.91F
MONCKS CORNER  FAIR      46  36  66 SW7       29.97F
SUMMERVILLE    FAIR      37  36  93 CALM      29.98F
BEAUFORT MCAS  CLEAR     43  39  86 SW8       30.01F
6HR MIN TEMP:  43; 6HR MAX TEMP:  49;

BEAUFORT ARPT  FAIR      46  39  76 SW6       30.01S
HILTON HEAD IS CLEAR     48  37  66 SW7       30.02F
WALTERBORO     CLEAR     43  36  75 SW5       29.98F
ALLENDALE      FAIR      45  37  76 CALM      29.97F

...SOUTHERN MIDLANDS AND PEE DEE...

CITY           SKY/WX    TMP DP  RH WIND       PRES   REMARKS
GEORGETOWN     FAIR      41  39  93 SW7       29.99F
KINGSTREE      FAIR      41  36  81 CALM      29.95F
ORANGEBURG     CLEAR     40  34  79 SW7       29.95F WCI  35
6HR MIN TEMP:  39; 6HR MAX TEMP:  45;

BARNWELL         N/A     46  37  71 SW6       29.96F
AIKEN          FAIR      43  34  70 SW6       29.97F
MANNING        FAIR      46  28  49 MISG      29.95F
COLUMBIA       CLEAR     46  37  71 SW8       29.92F
6HR MIN TEMP:  39; 6HR MAX TEMP:  49;

SUMTER         CLEAR     46  35  67 S7        29.90F
6HR MIN TEMP:  40; 6HR MAX TEMP:  46;

FLORENCE       CLEAR     40  35  83 S8        29.92F WCI  34
6HR MIN TEMP:  38; 6HR MAX TEMP:  43;

MYRTLE BEACH   CLEAR     47  38  71 SW7       29.98F
N MYRTLE BEACH CLEAR     48  40  73 SW9       29.96F
6HR MIN TEMP:  37; 6HR MAX TEMP:  49;


$$

GAZ063-065-086>088-099>101-113>116-118-119-134>141-150-120700-
...SOUTHEAST GEORGIA...

CITY           SKY/WX    TMP DP  RH WIND       PRES   REMARKS
SAVANNAH ARPT  CLEAR     47  37  68 SW9       30.03F
6HR MIN TEMP:  44; 6HR MAX TEMP:  49;

HUNTER AAF     CLEAR     46  37  71 SW7       30.00F
6HR MIN TEMP:  46; 6HR MAX TEMP:  51;

FORT STEWART   CLEAR     44  37  75 SW6       30.01F
6HR MIN TEMP:  41; 6HR MAX TEMP:  47;

STATESBORO     CLEAR     47  35  62 SW7       29.99F
SYLVANIA       CLEAR     48  39  72 SW5       30.00F
CLAXTON        FAIR      46  39  77 CALM      30.02F

...CSRA...CENTRAL AND FAR SOUTHEAST GEORGIA...

CITY           SKY/WX    TMP DP  RH WIND       PRES   REMARKS
THOMSON        CLEAR     43  36  75 W6        29.99F
AUGUSTA-BUSH   CLEAR     46  36  68 SW8       29.95F
6HR MIN TEMP:  39; 6HR MAX TEMP:  48;

AUGUSTA-DANIEL CLEAR     50  36  58 SW7       29.94F
SWAINSBORO     FAIR      46  36  66 NW5       29.99F
VIDALIA        CLEAR     46  39  76 SW6       30.01F
EASTMAN        FAIR      46  30  55 SW5       30.03F
HAZLEHURST     FAIR      48  35  60 SW6       30.01F
ALMA           CLEAR     42  37  82 S3        30.04F
6HR MIN TEMP:  41; 6HR MAX TEMP:  47;

WAYCROSS       CLEAR     42  37  83 SW5       30.05F
JESUP          NOT AVBL
BAXLEY         FAIR      41  37  87 SW3       30.03F
BRUNSWICK      CLEAR     45  36  70 SW9       30.06F
SAINT SIMONS   CLEAR     48  40  73 SW10      30.05F
6HR MIN TEMP:  48; 6HR MAX TEMP:  54;


$$

SCZ027-028-034-036>038-045-046-048>050-GAZ119-141-120700-
...LAKE AND SUPPLEMENTAL COASTAL OBSERVATIONS...

STATION/POSITION TIME  TEMP    WIND        PRES    WAVE   SWELL
                       AIR SEA DIR/SP/G            HT/PER HT/PER/DIR
                 (UTC) (F)     (DEG/KT/KT) (MB)    (FT/S) (FT/S/D)
WINYAH BAY       0445   45     230/  3     1016.0
LAKE MURRAY      0520   53     230/ 13/ 21 1012.2
ACE BASIN NERRS  0445   47        CALM     1016.0
FORT PULASKI     0536   48 55  230/  5/  7 1016.9F
SAPELO ISLAND    NOT AVBL

$$

ANZ835-935-AMZ111-154-330-350-352-354-370-450-454-472-120700-
...C-MAN AND BUOY OBSERVATIONS...

STATION/POSITION TIME  TEMP    WIND        PRES    WAVE   SWELL
                       AIR SEA DIR/SP/G            HT/PER HT/PER/DIR
                 (UTC) (F)     (DEG/KT/KT) (MB)    (FT/S) (FT/S/D)
BUOY 41004       0550      73  250/ 21/ 25 1015.1F   5/ 5   2/110/ 8
BUOY 41008       0450   57 60  220/ 17/ 21 1017.4    3/ 4   2/ 60/ 8
FOLLY BEACH CMAN 0500   54     230/  9/ 11 1016.4F
CAPERS NEARSHORE 0508   53 57  240/ 16/ 21 1015.3F
FRIPP NEARSHORE  0508   53 56  220/ 19/ 29 1015.9F


STATION/POSITION TIME  TEMP    WIND        PRES    WAVE   SWELL
                       AIR SEA DIR/SP/G            HT/PER HT/PER/DIR
                 (UTC) (F)     (DEG/KT/KT) (MB)    (FT/S) (FT/S/D)
5E ST. MARYS GA  0530      60                N/A     2/ 3
FRYING PAN BUOY  0550   59 61  250/ 17/ 21 1014.7F   3/ 4   2/110/ 9
BUOY 41025       0550   62 76  210/ 17/ 25 1013.2F   3/ 8   2/130/ 8
CAPE LOOKOUT NC  0500          220/  7/  9 1014.7F
BUOY 41002       0450   67 76  230/ 14/ 17 1016.9    4/ 6   2/ 80/ 8
BUOY 41010       NOT AVBL
ST AUGUSTINE FL  0600   47 62  240/  8/ 11 1019.0F


$$




USA.gov is the U.S. government's official web portal to all federal, state and local government web resources and services.